This is the latest recevied weather packets stored in our database for station/object KB4MOX. If no packets are shown the sender has not sent any weather packets the latest 10 day(s).
| Time | Temp. | Humidity | Pressure | Rain* | Wind** | Luminosity | Snow |
|---|---|---|---|---|---|---|---|
| 1777671453 | 20° C | 62% | 1012.4 hPa | 0 mm | - | 95 W/m² | - |
| 1777671150 | 20° C | 62% | 1012.6 hPa | 0 mm | - | 141 W/m² | - |
| 1777670846 | 20° C | 64% | 1012.6 hPa | 0 mm | - | 180 W/m² | - |
| 1777670542 | 19.44° C | 63% | 1012.6 hPa | 0 mm | - | 143 W/m² | - |
| 1777670239 | 19.44° C | 63% | 1012.6 hPa | 0 mm | - | 153 W/m² | - |
| 1777669936 | 20° C | 62% | 1012.5 hPa | 0 mm | - | 125 W/m² | - |
| 1777669633 | 20° C | 60% | 1012.7 hPa | 0 mm | - | 140 W/m² | - |
| 1777669330 | 20° C | 62% | 1012.5 hPa | 0 mm | - | 137 W/m² | - |
| 1777669027 | 20° C | 61% | 1012.6 hPa | 0 mm | - | 158 W/m² | - |
| 1777668723 | 20° C | 63% | 1012.5 hPa | 0 mm | - | 129 W/m² | - |
| 1777668420 | 20° C | 62% | 1012.7 hPa | 0 mm | - | 137 W/m² | - |
| 1777668116 | 20° C | 61% | 1012.6 hPa | 0 mm | - | 147 W/m² | - |
| 1777667813 | 20° C | 63% | 1012.8 hPa | 0 mm | - | 155 W/m² | - |
| 1777667511 | 20° C | 62% | 1012.8 hPa | 0 mm | - | 142 W/m² | - |
| 1777667208 | 20.56° C | 62% | 1012.6 hPa | 0 mm | - | 164 W/m² | - |
| 1777666905 | 20.56° C | 62% | 1012.6 hPa | 0 mm | - | 185 W/m² | - |
| 1777666601 | 20.56° C | 62% | 1012.7 hPa | 0 mm | - | 174 W/m² | - |
| 1777666298 | 20° C | 63% | 1012.9 hPa | 0 mm | - | 143 W/m² | - |
| 1777665995 | 20° C | 63% | 1012.6 hPa | 0 mm | - | 118 W/m² | - |
| 1777665693 | 20.56° C | 61% | 1012.7 hPa | 0 mm | - | 170 W/m² | - |
| 1777665390 | 20.56° C | 62% | 1012.7 hPa | 0 mm | - | 189 W/m² | - |
| 1777665085 | 20.56° C | 63% | 1012.7 hPa | 0 mm | - | 224 W/m² | - |
| 1777664781 | 20° C | 63% | 1013 hPa | 0 mm | - | 271 W/m² | - |
| 1777664476 | 20° C | 62% | 1012.9 hPa | 0 mm | - | 265 W/m² | - |
| 1777664174 | 20° C | 63% | 1012.8 hPa | 0 mm | - | 325 W/m² | - |
* Rain latest hour (hover to see other rain measurements)
** Current wind speed in m/s (hover to see current wind gust speed)